CW8998 Weather Reports


Display with metric or nautical units.
time (UTC)temp
F
wind
direction
speed
MPH
gust
MPH
rain 1hr
in
rain 24hr
in
rain mn
in
humidity
%
barometer
mb
20240625095025 69 288 1.0 5.0 0.00 0.00 0.00 78 1006.4
20240625094539 69 279 1.0 5.0 0.00 0.00 0.00 78 1006.3
20240625094025 69 287 1.0 5.0 0.00 0.00 0.00 79 1006.1
20240625093528 69 16 0.0 3.0 0.00 0.00 0.00 79 1006.0
20240625093028 69 323 1.0 3.0 0.00 0.00 0.00 78 1006.1
20240625092524 70 0 1.0 4.0 0.00 0.00 0.00 78 1006.1
20240625092024 70 0 1.0 5.0 0.00 0.00 0.00 77 1006.0
20240625091526 70 304 1.0 5.0 0.00 0.00 0.00 76 1006.0
20240625091025 71 329 2.0 4.0 0.00 0.00 0.00 76 1006.0
20240625090524 71 0 1.0 5.0 0.00 0.00 0.00 75 1005.7
20240625090030 71 350 1.0 8.0 0.00 0.00 0.00 75 1005.6
20240625085526 72 340 2.0 8.0 0.00 0.00 0.00 74 1005.4
20240625085024 72 23 3.0 9.0 0.00 0.00 0.00 74 1005.3
20240625084529 72 341 2.0 9.0 0.00 0.00 0.00 74 1005.2
20240625084027 72 351 3.0 9.0 0.00 0.00 0.00 74 1005.1
20240625083527 72 352 1.0 9.0 0.00 0.00 0.00 75 1005.1
20240625083033 72 350 2.0 9.0 0.00 0.00 0.00 76 1005.1
20240625082524 72 300 2.0 10.0 0.00 0.00 0.00 76 1005.0
20240625082025 73 306 3.0 10.0 0.00 0.00 0.00 78 1005.1
20240625081545 72 348 2.0 11.0 0.00 0.00 0.00 81 1004.9
20240625081025 72 12 3.0 11.0 0.00 0.00 0.00 83 1004.9
20240625080525 72 46 3.0 10.0 0.00 0.00 0.00 85 1004.8
20240625080029 72 252 3.0 12.0 0.00 0.00 0.00 87 1004.8
20240625075524 72 292 4.0 12.0 0.00 0.00 0.00 88 1004.8
20240625075025 72 284 4.0 11.0 0.00 0.00 0.00 88 1004.6
20240625074525 72 300 4.0 9.0 0.00 0.00 0.00 89 1004.5
20240625074024 72 319 2.0 4.0 0.00 0.00 0.00 89 1004.5
20240625073525 71 318 1.0 4.0 0.00 0.00 0.00 89 1004.3
20240625073029 71 305 1.0 4.0 0.00 0.00 0.00 89 1004.1
20240625072524 71 311 2.0 6.0 0.00 0.00 0.00 89 1004.0
20240625072025 71 305 1.0 6.0 0.00 0.00 0.00 89 1003.7
20240625071530 71 317 2.0 4.0 0.00 0.00 0.00 89 1003.8
20240625071027 71 323 1.0 4.0 0.00 0.00 0.00 89 1003.5
20240625070525 71 0 1.0 4.0 0.00 0.00 0.00 89 1003.6
20240625070033 71 0 1.0 4.0 0.00 0.00 0.00 89 1003.6
20240625065525 71 294 1.0 4.0 0.00 0.00 0.00 90 1003.5
20240625065026 71 286 2.0 4.0 0.00 0.00 0.00 90 1003.3
20240625064533 71 320 1.0 4.0 0.00 0.00 0.00 90 1002.9
20240625064025 71 288 0.0 2.0 0.00 0.00 0.00 90 1002.9
20240625063524 71 0 0.0 2.0 0.00 0.00 0.00 89 1002.7
20240625063032 71 288 0.0 3.0 0.00 0.00 0.00 89 1002.4
20240625062525 71 324 1.0 4.0 0.00 0.00 0.00 89 1002.6
20240625062024 72 351 0.0 5.0 0.00 0.00 0.00 89 1002.7
20240625061537 72 287 2.0 6.0 0.00 0.00 0.00 89 1002.8
20240625061029 72 0 2.0 6.0 0.00 0.00 0.00 89 1002.7
20240625060525 72 294 1.0 4.0 0.00 0.00 0.00 89 1002.7
20240625060028 72 338 1.0 4.0 0.00 0.00 0.00 88 1002.7
20240625055524 72 288 2.0 4.0 0.00 0.00 0.00 88 1002.6
20240625055027 72 309 2.0 5.0 0.00 0.00 0.00 88 1002.5
20240625054528 72 342 1.0 7.0 0.00 0.00 0.00 88 1002.6
20240625054025 72 304 2.0 7.0 0.00 0.00 0.00 88 1002.6
20240625053525 72 322 3.0 5.0 0.00 0.00 0.00 88 1002.7
20240625053032 73 304 2.0 5.0 0.00 0.00 0.00 88 1002.6
20240625052525 73 286 2.0 5.0 0.00 0.00 0.00 88 1002.7
20240625052028 73 285 2.0 5.0 0.00 0.00 0.00 88 1002.6
20240625051535 73 332 2.0 6.0 0.00 0.00 0.00 88 1002.7
20240625051025 73 303 2.0 6.0 0.00 0.00 0.00 88 1002.7
20240625050525 72 306 2.0 7.0 0.00 0.00 0.00 88 1002.6
20240625050029 72 286 2.0 7.0 0.00 0.00 0.00 88 1002.4
20240625045526 72 315 1.0 4.0 0.00 0.00 0.00 88 1002.4
20240625045025 73 342 0.0 3.0 0.00 0.00 0.00 88 1002.4
20240625044543 73 15 0.0 4.0 0.00 0.00 0.00 87 1002.5
20240625044026 73 284 0.0 4.0 0.00 0.00 0.00 87 1002.5
20240625043525 73 329 1.0 4.0 0.00 0.00 0.00 87 1002.4
20240625043026 73 0 0.0 4.0 0.00 0.00 0.00 87 1002.5
20240625042526 74 0 1.0 4.0 0.00 0.00 0.00 87 1002.4
20240625042026 74 342 1.0 5.0 0.00 0.00 0.00 87 1002.6
20240625041525 74 360 2.0 5.0 0.00 0.00 0.00 87 1002.5
20240625041025 74 310 2.0 5.0 0.00 0.00 0.00 87 1002.6
20240625040527 74 5 1.0 4.0 0.00 0.00 0.00 87 1002.6
20240625040033 74 19 1.0 4.0 0.00 0.00 0.00 87 1002.5
20240625035525 74 350 1.0 2.0 0.00 0.00 0.00 86 1002.6
20240625035025 74 352 0.0 3.0 0.00 0.00 0.00 86 1002.5
20240625034527 74 0 0.0 3.0 0.00 0.00 0.00 86 1002.4
20240625034027 74 352 0.0 2.0 0.00 0.00 0.00 86 1002.4
20240625033527 75 352 0.0 1.0 0.00 0.00 0.00 86 1002.5
20240625033044 75 0 0.0 1.0 0.00 0.00 0.00 85 1002.4
20240625032530 75 0 0.0 1.0 0.00 0.00 0.00 85 1002.3
20240625032029 76 0 0.0 1.0 0.00 0.00 0.00 83 1002.3
20240625031530 76 0 0.0 2.0 0.00 0.00 0.00 83 1002.3
20240625031026 76 0 0.0 2.0 0.00 0.00 0.00 82 1002.3
20240625030527 76 0 0.0 2.0 0.00 0.00 0.00 82 1002.3
20240625030026 76 0 0.0 1.0 0.00 0.00 0.00 82 1002.3
20240625025523 76 0 0.0 2.0 0.00 0.00 0.00 82 1002.4
20240625025026 77 0 0.0 2.0 0.00 0.00 0.00 81 1002.4
20240625024526 77 10 0.0 3.0 0.00 0.00 0.00 81 1002.3
20240625024023 77 0 1.0 3.0 0.00 0.00 0.00 81 1002.2
20240625023523 77 10 0.0 2.0 0.00 0.00 0.00 80 1002.2
20240625023030 77 10 0.0 2.0 0.00 0.00 0.00 80 1002.3
20240625022527 77 0 0.0 1.0 0.00 0.00 0.00 80 1002.2
20240625022027 78 10 0.0 1.0 0.00 0.00 0.00 80 1002.2
20240625021528 78 0 0.0 1.0 0.00 0.00 0.00 80 1002.0
20240625021025 78 0 0.0 1.0 0.00 0.00 0.00 79 1002.2
20240625020526 79 0 0.0 2.0 0.00 0.00 0.00 78 1002.3
20240625020043 79 0 0.0 3.0 0.00 0.00 0.00 77 1002.4
20240625015525 79 256 0.0 3.0 0.00 0.00 0.00 77 1002.3
20240625015024 79 0 1.0 4.0 0.00 0.00 0.00 77 1002.3
20240625014528 79 247 0.0 4.0 0.00 0.00 0.00 77 1002.2
20240625014026 79 226 1.0 3.0 0.00 0.00 0.00 77 1002.1
20240625013527 80 0 1.0 3.0 0.00 0.00 0.00 76 1002.3
20240625013032 80 69 0.0 5.0 0.00 0.00 0.00 76 1002.4
20240625012528 80 204 1.0 6.0 0.00 0.00 0.00 75 1002.5
20240625012027 80 0 1.0 6.0 0.00 0.00 0.00 75 1002.5
20240625011540 81 162 2.0 6.0 0.00 0.00 0.00 74 1002.4
20240625011028 81 164 2.0 6.0 0.00 0.00 0.00 74 1002.4
20240625010529 81 0 1.0 6.0 0.00 0.00 0.00 74 1002.6
20240625010042 81 197 1.0 4.0 0.00 0.00 0.00 74 1002.7
20240625005528 81 157 1.0 5.0 0.00 0.00 0.00 74 1002.8
20240625005026 81 230 1.0 5.0 0.00 0.00 0.00 74 1002.8
20240625004533 81 67 0.0 3.0 0.00 0.00 0.00 73 1002.9
20240625004029 81 101 0.0 4.0 0.00 0.00 0.00 73 1003.0
20240625003527 81 88 1.0 4.0 0.00 0.00 0.00 73 1003.0
20240625003029 81 184 1.0 4.0 0.00 0.00 0.00 72 1003.0
20240625002527 81 313 0.0 4.0 0.00 0.00 0.00 74 1003.0
20240625002030 81 139 1.0 4.0 0.00 0.00 0.00 72 1003.1
20240625001531 81 78 1.0 4.0 0.00 0.00 0.00 72 1003.1
20240625001029 82 105 0.0 3.0 0.00 0.00 0.00 72 1003.3
20240625000528 82 111 1.0 4.0 0.00 0.00 0.00 72 1003.3
20240625000045 82 191 1.0 4.0 0.00 0.00 0.00 73 1003.3
20240624235529 82 0 1.0 4.0 0.00 0.00 0.00 73 1003.3
20240624235030 81 360 1.0 5.0 0.00 0.00 0.00 73 1003.3
20240624234533 81 104 1.0 5.0 0.00 0.00 0.00 72 1003.3
20240624234029 82 0 0.0 6.0 0.00 0.00 0.00 72 1003.3
20240624233528 82 178 1.0 7.0 0.00 0.00 0.00 72 1003.3
20240624233030 82 94 2.0 7.0 0.00 0.00 0.00 72 1003.3
20240624232527 82 0 2.0 5.0 0.00 0.00 0.00 71 1003.3
20240624232029 82 0 0.0 5.0 0.00 0.00 0.00 72 1003.4
20240624231541 81 127 1.0 7.0 0.00 0.00 0.00 71 1003.5
20240624231031 82 136 2.0 8.0 0.00 0.00 0.00 70 1003.6
20240624230529 82 0 2.0 8.0 0.00 0.00 0.00 70 1003.7
20240624230039 82 181 2.0 6.0 0.00 0.00 0.00 69 1003.7
20240624225529 82 65 2.0 6.0 0.00 0.00 0.00 69 1003.7
20240624225029 83 134 1.0 9.0 0.00 0.00 0.00 68 1003.8
20240624224531 83 219 3.0 9.0 0.00 0.00 0.00 69 1003.7
20240624224029 83 17 2.0 6.0 0.00 0.00 0.00 68 1003.8
20240624223531 83 148 2.0 8.0 0.00 0.00 0.00 68 1003.7
20240624223126 83 202 3.0 10.0 0.00 0.00 0.00 68 1003.7
20240624222532 83 293 3.0 14.0 0.00 0.00 0.00 67 1003.6
20240624222028 83 107 2.0 14.0 0.00 0.00 0.00 67 1003.7
20240624221532 83 158 2.0 15.0 0.00 0.00 0.00 65 1003.7
20240624221029 83 153 3.0 15.0 0.00 0.00 0.00 65 1003.7
20240624220526 83 213 3.0 10.0 0.00 0.00 0.00 67 1003.9
20240624220055 83 220 3.0 10.0 0.00 0.00 0.00 65 1004.1
20240624215529 83 40 3.0 10.0 0.00 0.00 0.00 65 1004.3
20240624215027 83 171 2.0 8.0 0.00 0.00 0.00 65 1004.3
20240624214534 82 171 4.0 8.0 0.00 0.00 0.00 65 1004.4
20240624214029 83 259 3.0 8.0 0.00 0.00 0.00 63 1004.5
20240624213529 83 177 4.0 8.0 0.00 0.00 0.00 64 1004.6
20240624213053 85 167 1.0 11.0 0.00 0.00 0.00 62 1004.7
20240624212529 85 199 2.0 11.0 0.00 0.00 0.00 62 1004.8
20240624212029 84 171 4.0 11.0 0.00 0.00 0.00 62 1004.7
20240624211533 84 76 2.0 11.0 0.00 0.00 0.00 63 1005.0
20240624211029 84 126 4.0 11.0 0.00 0.00 0.00 62 1004.7
20240624210529 84 186 2.0 10.0 0.00 0.00 0.00 61 1004.7
20240624210039 84 213 3.0 9.0 0.00 0.00 0.00 62 1004.9
20240624205528 83 61 4.0 9.0 0.00 0.00 0.00 62 1004.9
20240624205030 84 194 2.0 9.0 0.00 0.00 0.00 63 1005.0
20240624204535 83 189 3.0 15.0 0.00 0.00 0.00 63 1005.1
20240624204026 83 174 2.0 15.0 0.00 0.00 0.00 63 1005.1
20240624203528 82 197 3.0 10.0 0.00 0.00 0.00 64 1005.3
20240624203043 82 292 3.0 16.0 0.00 0.00 0.00 62 1005.4
20240624202528 82 155 3.0 16.0 0.00 0.00 0.00 63 1005.6
20240624202027 82 218 3.0 9.0 0.00 0.00 0.00 63 1005.6
20240624201546 82 261 3.0 12.0 0.00 0.00 0.00 63 1005.6
20240624201028 82 187 4.0 12.0 0.00 0.00 0.00 62 1005.7
20240624200529 82 201 4.0 15.0 0.00 0.00 0.00 61 1005.6
20240624200034 83 48 4.0 17.0 0.00 0.00 0.00 59 1005.5
20240624195528 84 202 7.0 17.0 0.00 0.00 0.00 59 1005.3
20240624195028 84 326 3.0 17.0 0.00 0.00 0.00 61 1005.4
20240624194532 83 155 5.0 17.0 0.00 0.00 0.00 62 1005.6
20240624194030 82 134 4.0 10.0 0.00 0.00 0.00 62 1005.6
20240624193531 82 104 3.0 11.0 0.00 0.00 0.00 63 1005.8
20240624193034 82 170 4.0 11.0 0.00 0.00 0.00 63 1005.9
20240624192528 81 103 4.0 11.0 0.00 0.00 0.00 64 1006.1
20240624192027 82 145 3.0 10.0 0.00 0.00 0.00 63 1006.1
20240624191534 82 158 2.0 10.0 0.00 0.00 0.00 62 1006.1
20240624191028 82 55 3.0 10.0 0.00 0.00 0.00 62 1006.2
20240624190526 81 182 3.0 10.0 0.00 0.00 0.00 63 1006.3
20240624190036 81 172 5.0 11.0 0.00 0.00 0.00 62 1006.5
20240624185528 82 202 4.0 11.0 0.00 0.00 0.00 61 1006.6
20240624185026 81 229 4.0 19.0 0.00 0.00 0.00 63 1006.6
20240624184532 81 162 4.0 19.0 0.00 0.00 0.00 60 1006.7
20240624184026 81 183 3.0 12.0 0.00 0.00 0.00 61 1007.1
20240624183525 81 98 4.0 13.0 0.00 0.00 0.00 61 1007.5
20240624183026 82 137 6.0 13.0 0.00 0.00 0.00 58 1007.1
20240624182525 82 242 3.0 12.0 0.00 0.00 0.00 61 1007.2
20240624182028 81 204 4.0 12.0 0.00 0.00 0.00 60 1007.2
20240624181533 80 236 5.0 12.0 0.00 0.00 0.00 60 1007.3
20240624181025 81 109 3.0 10.0 0.00 0.00 0.00 59 1007.5
20240624180525 81 181 3.0 10.0 0.00 0.00 0.00 58 1007.6
20240624180024 82 225 3.0 9.0 0.00 0.00 0.00 56 1007.6
20240624175526 82 229 3.0 10.0 0.00 0.00 0.00 58 1007.5
20240624175024 82 320 2.0 14.0 0.00 0.00 0.00 58 1007.3
20240624174528 82 180 4.0 14.0 0.00 0.00 0.00 55 1007.3
20240624174026 82 192 4.0 12.0 0.00 0.00 0.00 57 1007.5
20240624173525 81 30 5.0 12.0 0.00 0.00 0.00 57 1007.8
20240624173037 81 257 4.0 12.0 0.00 0.00 0.00 55 1008.2
20240624172526 82 14 3.0 11.0 0.00 0.00 0.00 54 1008.6
20240624172026 81 53 3.0 11.0 0.00 0.00 0.00 55 1008.6
20240624171533 80 133 3.0 8.0 0.00 0.00 0.00 57 1008.8
20240624171026 80 221 2.0 8.0 0.00 0.00 0.00 61 1009.4
20240624170528 78 153 2.0 9.0 0.00 0.00 0.00 61 1009.7
20240624170031 78 66 2.0 9.0 0.00 0.00 0.00 60 1010.0
20240624165525 78 105 3.0 9.0 0.00 0.00 0.00 59 1009.8
20240624165026 77 5 2.0 8.0 0.00 0.00 0.00 63 1009.7
20240624164534 76 147 1.0 3.0 0.00 0.00 0.00 65 1010.0
20240624164025 76 89 0.0 4.0 0.00 0.00 0.00 63 1010.4
20240624163527 76 10 1.0 4.0 0.00 0.00 0.00 63 1010.8
20240624163026 76 52 0.0 7.0 0.00 0.00 0.00 63 1010.7
20240624162527 76 213 1.0 7.0 0.00 0.00 0.00 64 1010.6
20240624162026 77 325 2.0 8.0 0.00 0.00 0.00 61 1010.3
20240624161534 77 204 2.0 11.0 0.00 0.00 0.00 59 1009.9
20240624161028 77 216 3.0 11.0 0.00 0.00 0.00 59 1009.6
20240624160531 78 153 2.0 12.0 0.00 0.00 0.00 59 1009.2
20240624160042 78 227 4.0 14.0 0.00 0.00 0.00 57 1009.1
20240624155528 78 192 6.0 14.0 0.00 0.00 0.00 57 1008.6
20240624155029 79 234 3.0 11.0 0.00 0.00 0.00 58 1008.7
20240624154532 80 171 3.0 15.0 0.00 0.00 0.00 57 1009.0
20240624154029 80 117 4.0 15.0 0.00 0.00 0.00 58 1009.1
20240624153528 79 172 3.0 12.0 0.00 0.00 0.00 58 1009.2
20240624153038 78 119 4.0 9.0 0.00 0.00 0.00 60 1009.1
20240624152528 79 187 4.0 10.0 0.00 0.00 0.00 60 1008.9
20240624152028 78 176 4.0 11.0 0.00 0.00 0.00 62 1009.0
20240624151529 78 175 4.0 11.0 0.00 0.00 0.00 64 1009.3
20240624151028 78 207 3.0 11.0 0.00 0.00 0.00 63 1009.2
20240624150528 77 153 2.0 12.0 0.00 0.00 0.00 66 1009.4
20240624150033 76 176 5.0 12.0 0.00 0.00 0.00 66 1009.5
20240624145529 77 315 2.0 8.0 0.00 0.00 0.00 68 1009.9
20240624145029 76 149 2.0 8.0 0.00 0.00 0.00 68 1010.0
20240624144528 75 63 3.0 11.0 0.00 0.00 0.00 68 1010.0
20240624144026 74 95 3.0 11.0 0.00 0.00 0.00 71 1010.0
20240624143530 74 132 2.0 9.0 0.00 0.00 0.00 72 1009.8
20240624143035 73 128 3.0 9.0 0.00 0.00 0.00 73 1009.9
20240624142528 72 178 4.0 9.0 0.00 0.00 0.00 75 1010.0
20240624142030 72 160 2.0 6.0 0.00 0.00 0.00 75 1010.1
20240624141556 72 219 2.0 5.0 0.00 0.00 0.00 76 1010.1
20240624141028 72 194 2.0 5.0 0.00 0.00 0.00 77 1010.2
20240624140528 72 175 2.0 6.0 0.00 0.00 0.00 77 1010.3
20240624140033 72 218 2.0 6.0 0.00 0.00 0.00 76 1010.5
20240624135529 72 213 2.0 5.0 0.00 0.00 0.00 76 1010.6
20240624135028 71 186 1.0 3.0 0.00 0.00 0.00 77 1010.9
20240624134535 70 225 1.0 4.0 0.00 0.00 0.00 79 1011.0
20240624134028 70 174 0.0 5.0 0.00 0.00 0.00 79 1011.1
20240624133528 70 184 2.0 5.0 0.00 0.00 0.00 80 1011.1
20240624133032 69 172 1.0 4.0 0.00 0.00 0.00 79 1011.2
20240624132528 69 159 1.0 4.0 0.00 0.00 0.00 80 1011.3
20240624132028 69 219 0.0 2.0 0.00 0.00 0.00 80 1011.3
20240624131531 68 0 0.0 2.0 0.00 0.00 0.00 79 1011.3
20240624131027 68 0 0.0 3.0 0.00 0.00 0.00 80 1011.3
20240624130527 68 0 0.0 3.0 0.00 0.00 0.00 81 1011.3
20240624130042 67 0 1.0 4.0 0.00 0.00 0.00 80 1011.2
20240624125529 67 0 0.0 4.0 0.00 0.00 0.00 81 1011.0
20240624125028 67 0 1.0 4.0 0.00 0.00 0.00 81 1010.7
20240624124534 67 122 1.0 4.0 0.00 0.00 0.00 81 1010.6
20240624124028 66 182 1.0 4.0 0.00 0.00 0.00 82 1010.6
20240624123528 66 0 1.0 4.0 0.00 0.00 0.00 82 1010.6
20240624123034 66 169 1.0 4.0 0.00 0.00 0.00 83 1010.5
20240624122530 65 0 1.0 5.0 0.00 0.00 0.00 84 1010.6
20240624122027 64 122 1.0 6.0 0.00 0.00 0.00 84 1010.4
20240624121532 64 144 1.0 6.0 0.00 0.00 0.00 83 1010.4
20240624121028 64 172 3.0 6.0 0.00 0.00 0.00 83 1010.5
20240624120531 64 183 2.0 7.0 0.00 0.00 0.00 83 1010.3
20240624120032 64 159 3.0 7.0 0.00 0.00 0.00 82 1010.3
20240624115528 64 166 2.0 6.0 0.00 0.00 0.00 83 1010.3
20240624115028 64 194 2.0 5.0 0.00 0.00 0.00 83 1010.3
20240624114535 64 172 1.0 7.0 0.00 0.00 0.00 82 1010.3
20240624114027 64 192 2.0 8.0 0.00 0.00 0.00 81 1010.4
20240624113528 64 88 3.0 8.0 0.00 0.00 0.00 82 1010.4
20240624113037 64 164 3.0 6.0 0.00 0.00 0.00 82 1010.2
20240624112528 63 0 1.0 5.0 0.00 0.00 0.00 82 1010.2
20240624112031 64 111 1.0 4.0 0.00 0.00 0.00 81 1010.4
20240624111535 64 146 1.0 4.0 0.00 0.00 0.00 81 1010.3
20240624111028 64 167 1.0 5.0 0.00 0.00 0.00 81 1010.3
20240624110528 64 103 1.0 5.0 0.00 0.00 0.00 80 1010.3
20240624110051 64 149 1.0 5.0 0.00 0.00 0.00 81 1010.1
20240624105531 64 161 1.0 5.0 0.00 0.00 0.00 81 1009.9
20240624105030 64 0 1.0 6.0 0.00 0.00 0.00 80 1010.0
20240624104535 64 144 1.0 6.0 0.00 0.00 0.00 80 1010.1
20240624104027 64 179 2.0 5.0 0.00 0.00 0.00 80 1010.3
20240624103530 64 207 1.0 5.0 0.00 0.00 0.00 79 1010.3
20240624103032 64 165 1.0 5.0 0.00 0.00 0.00 79 1010.2
20240624102528 64 141 1.0 5.0 0.00 0.00 0.00 79 1010.2
20240624102028 64 190 0.0 5.0 0.00 0.00 0.00 79 1010.3
20240624101529 64 122 1.0 5.0 0.00 0.00 0.00 79 1010.3
20240624101025 64 188 2.0 5.0 0.00 0.00 0.00 79 1010.2
20240624100525 64 127 1.0 4.0 0.00 0.00 0.00 80 1010.4
20240624100048 64 128 1.0 4.0 0.00 0.00 0.00 80 1010.5
20240624095524 64 0 1.0 4.0 0.00 0.00 0.00 81 1010.6